Date,TemperatureHighF,TemperatureAvgF,TemperatureLowF,DewpointHighF,DewpointAvgF,DewpointLowF,HumidityHigh,HumidityAvg,HumidityLow,PressureMaxIn,PressureMinIn,WindSpeedMaxMPH,WindSpeedAvgMPH,GustSpeedMaxMPH,PrecipitationSumIn
2013-6-1,89,75,26,67,61,22,92,64,42,29.94,29.28,12,4,12,0.05
2013-6-2,69,68,66,65,62,60,91,82,74,29.80,29.74,8,3,8,0.00
2013-6-3,73,60,48,62,56,48,99,87,61,29.89,29.76,8,2,8,0.01
2013-6-4,78,57,37,51,45,37,99,69,34,30.00,29.88,7,2,7,0.00
2013-6-5,80,63,48,59,52,45,92,70,45,30.00,29.87,11,3,11,0.00
2013-6-6,62,58,56,59,57,56,99,97,85,29.88,29.71,13,4,13,0.40
2013-6-7,68,61,57,66,61,57,99,98,93,29.72,29.61,8,2,8,0.26
2013-6-8,74,59,52,61,55,51,99,89,59,29.99,29.70,9,2,9,0.00
2013-6-9,82,68,54,65,60,53,99,80,52,30.06,29.96,11,3,11,0.00
2013-6-10,75,65,59,70,63,59,99,94,74,29.96,29.71,10,3,10,0.47
2013-6-11,71,63,60,66,61,60,99,95,79,29.80,29.70,14,4,14,0.07
2013-6-12,84,72,61,68,65,60,99,82,55,29.82,29.72,14,3,14,0.00
2013-6-13,71,63,56,69,62,53,99,94,80,29.72,29.48,19,4,19,0.06
2013-6-14,76,61,50,59,54,50,99,79,48,29.92,29.62,11,3,11,0.00
2013-6-15,83,63,49,60,53,47,99,72,34,29.99,29.89,11,2,11,0.14
2013-6-16,74,63,57,67,60,53,99,91,71,29.93,29.82,16,4,16,0.05
2013-6-17,84,68,61,71,63,61,99,85,52,29.88,29.82,10,2,10,0.41
2013-6-18,76,66,59,70,63,58,99,90,75,29.85,29.74,11,2,11,0.32
2013-6-19,87,66,54,62,57,51,99,76,33,30.02,29.82,7,2,7,0.00
2013-6-20,88,68,55,65,59,54,99,77,42,30.10,30.02,6,2,6,0.00
2013-6-21,92,72,57,68,60,54,99,73,32,30.14,30.08,8,2,8,0.00
2013-6-22,92,73,60,69,64,59,99,75,38,30.11,30.01,7,2,7,0.00
2013-6-23,93,75,62,71,65,60,97,73,42,30.08,29.98,7,2,7,0.00
2013-6-24,90,74,64,70,66,62,98,76,45,30.06,29.95,8,2,8,0.00
2013-6-25,90,75,63,70,66,58,99,76,46,29.99,29.84,19,3,19,0.00
2013-6-26,81,71,60,71,67,60,99,87,67,29.93,29.77,10,3,10,0.20
2013-6-27,69,66,63,68,65,62,99,98,92,29.77,29.57,8,3,8,0.51
2013-6-28,78,65,57,71,63,57,99,94,75,29.58,29.47,20,2,20,0.81
2013-6-29,83,66,57,70,61,57,99,84,56,29.64,29.47,9,2,9,0.04
2013-6-30,89,70,60,72,63,59,99,81,44,29.78,29.62,8,2,8,0.08